Location: Baggett Branch
(32.6074°N, 97.0167°W)
Time: 22:29:35
(UTC+00:00)

Cosmos 2221 Rocket - Pass Details

Date: 10 February 2026
Orbit: 616 x 641 km, 82.5° (Epoch: 11 March)

Event Time Altitude Azimuth Distance (km) Brightness Sun altitude
Rises 12:47:34 0° 345° (NNW) 2,951 6.8 -6.5°
Reaches altitude 10° 12:49:54 10° 339° (NNW) 2,037 5.9 -6.1°
Maximum altitude 12:54:10 43° 268° (W) 896 4.0 -5.2°
Drops below altitude 10° 12:58:25 10° 197° (SSW) 2,017 6.2 -4.3°
Sets 13:00:43 0° 190° (S) 2,918 7.1 -3.8°
